| time (UTC) | temp C | wind direction | speed KPH | gust KPH | rain 1hr cm | rain 24hr cm | rain mn cm | humidity % | barometer mb |
| 20260506203834 | 15 | 88 | 1.6 | 4.8 | 0.00 | 0.00 | 0.00 | 79 | 1011.5 |
| 20260506203327 | 15 | 88 | 1.6 | 3.2 | 0.00 | 0.00 | 0.00 | 79 | 1011.3 |
| 20260506202838 | 15 | 88 | 0.0 | 3.2 | 0.00 | 0.00 | 0.00 | 78 | 1011.3 |
| 20260506202327 | 15 | 88 | 0.0 | 3.2 | 0.00 | 0.00 | 0.00 | 78 | 1011.3 |
| 20260506201817 | 15 | 88 | 1.6 | 3.2 | 0.00 | 0.00 | 0.00 | 78 | 1011.3 |
| 20260506201332 | 15 | 88 | 0.0 | 8.0 | 0.00 | 0.00 | 0.00 | 78 | 1011.4 |
| 20260506200827 | 15 | 88 | 1.6 | 8.0 | 0.00 | 0.00 | 0.00 | 78 | 1011.3 |
| 20260506200340 | 16 | 88 | 3.2 | 9.7 | 0.00 | 0.00 | 0.00 | 78 | 1011.2 |
| 20260506195830 | 16 | 88 | 3.2 | 9.7 | 0.00 | 0.00 | 0.00 | 77 | 1011.1 |
| 20260506195324 | 16 | 85 | 1.6 | 8.0 | 0.00 | 0.00 | 0.00 | 77 | 1011.0 |
| 20260506194837 | 16 | 84 | 3.2 | 8.0 | 0.00 | 0.00 | 0.00 | 77 | 1010.9 |
| 20260506194328 | 16 | 84 | 1.6 | 8.0 | 0.00 | 0.00 | 0.00 | 77 | 1010.9 |
| 20260506193818 | 16 | 84 | 1.6 | 8.0 | 0.00 | 0.00 | 0.00 | 77 | 1010.8 |
| 20260506193332 | 16 | 84 | 1.6 | 8.0 | 0.00 | 0.00 | 0.00 | 76 | 1010.9 |
| 20260506192827 | 16 | 74 | 1.6 | 6.4 | 0.00 | 0.00 | 0.00 | 76 | 1010.9 |
| 20260506192322 | 16 | 74 | 1.6 | 6.4 | 0.00 | 0.00 | 0.00 | 76 | 1010.9 |
| 20260506191833 | 16 | 72 | 1.6 | 4.8 | 0.00 | 0.00 | 0.00 | 76 | 1010.8 |
| 20260506191326 | 16 | 72 | 1.6 | 4.8 | 0.00 | 0.00 | 0.00 | 76 | 1010.7 |
| 20260506190837 | 16 | 72 | 1.6 | 4.8 | 0.00 | 0.00 | 0.00 | 75 | 1010.6 |
| 20260506190327 | 16 | 72 | 0.0 | 4.8 | 0.00 | 0.00 | 0.00 | 75 | 1010.8 |
| 20260506185838 | 16 | 72 | 0.0 | 4.8 | 0.00 | 0.00 | 0.00 | 75 | 1010.8 |
| 20260506185328 | 16 | 72 | 1.6 | 6.4 | 0.00 | 0.00 | 0.00 | 75 | 1010.8 |
| 20260506184826 | 16 | 72 | 0.0 | 4.8 | 0.00 | 0.00 | 0.00 | 75 | 1010.8 |
| 20260506184336 | 17 | 72 | 0.0 | 3.2 | 0.00 | 0.00 | 0.00 | 74 | 1010.8 |
| 20260506183829 | 17 | 72 | 1.6 | 3.2 | 0.00 | 0.00 | 0.00 | 74 | 1010.8 |
| 20260506183322 | 17 | 72 | 0.0 | 3.2 | 0.00 | 0.00 | 0.00 | 74 | 1010.8 |
| 20260506182833 | 17 | 72 | 0.0 | 0.0 | 0.00 | 0.00 | 0.00 | 73 | 1010.7 |
| 20260506182324 | 17 | 72 | 0.0 | 1.6 | 0.00 | 0.00 | 0.00 | 73 | 1010.6 |
| 20260506181833 | 17 | 72 | 0.0 | 1.6 | 0.00 | 0.00 | 0.00 | 73 | 1010.5 |
| 20260506181327 | 17 | 72 | 0.0 | 1.6 | 0.00 | 0.00 | 0.00 | 72 | 1010.5 |
| 20260506180827 | 17 | 72 | 0.0 | 3.2 | 0.00 | 0.00 | 0.00 | 72 | 1010.6 |
| 20260506180337 | 17 | 72 | 1.6 | 3.2 | 0.00 | 0.00 | 0.00 | 71 | 1010.6 |
| 20260506175828 | 17 | 72 | 0.0 | 6.4 | 0.00 | 0.00 | 0.00 | 70 | 1010.5 |
| 20260506175341 | 17 | 72 | 1.6 | 6.4 | 0.00 | 0.00 | 0.00 | 70 | 1010.5 |
| 20260506174832 | 18 | 72 | 0.0 | 1.6 | 0.00 | 0.00 | 0.00 | 69 | 1010.5 |
| 20260506174342 | 18 | 72 | 0.0 | 3.2 | 0.00 | 0.00 | 0.00 | 70 | 1010.5 |
| 20260506173833 | 18 | 72 | 0.0 | 4.8 | 0.00 | 0.00 | 0.00 | 69 | 1010.4 |
| 20260506173343 | 18 | 72 | 1.6 | 4.8 | 0.00 | 0.00 | 0.00 | 69 | 1010.5 |
| 20260506172838 | 18 | 72 | 0.0 | 4.8 | 0.00 | 0.00 | 0.00 | 68 | 1010.5 |
| 20260506172328 | 18 | 72 | 1.6 | 4.8 | 0.00 | 0.00 | 0.00 | 67 | 1010.4 |
| 20260506171839 | 18 | 72 | 0.0 | 4.8 | 0.00 | 0.00 | 0.00 | 68 | 1010.4 |
| 20260506171332 | 18 | 72 | 1.6 | 4.8 | 0.00 | 0.00 | 0.00 | 68 | 1010.4 |
| 20260506170826 | 18 | 72 | 0.0 | 8.0 | 0.00 | 0.00 | 0.00 | 68 | 1010.5 |
| 20260506170337 | 19 | 73 | 1.6 | 8.0 | 0.00 | 0.00 | 0.00 | 69 | 1010.4 |
| 20260506165827 | 19 | 68 | 1.6 | 8.0 | 0.00 | 0.00 | 0.00 | 69 | 1010.6 |
| 20260506165324 | 19 | 69 | 1.6 | 6.4 | 0.00 | 0.00 | 0.00 | 70 | 1010.5 |
| 20260506164838 | 19 | 69 | 0.0 | 8.0 | 0.00 | 0.00 | 0.00 | 70 | 1010.5 |
| 20260506164329 | 19 | 71 | 1.6 | 8.0 | 0.00 | 0.00 | 0.00 | 70 | 1010.5 |
| 20260506163840 | 19 | 69 | 0.0 | 8.0 | 0.00 | 0.00 | 0.00 | 69 | 1010.5 |
| 20260506163330 | 19 | 68 | 1.6 | 9.7 | 0.00 | 0.00 | 0.00 | 69 | 1010.5 |
| 20260506162823 | 19 | 87 | 1.6 | 8.0 | 0.00 | 0.00 | 0.00 | 68 | 1010.5 |
| 20260506162334 | 20 | 77 | 1.6 | 4.8 | 0.00 | 0.00 | 0.00 | 68 | 1010.6 |
| 20260506161827 | 20 | 77 | 1.6 | 4.8 | 0.00 | 0.00 | 0.00 | 67 | 1010.5 |
| 20260506161338 | 20 | 77 | 1.6 | 4.8 | 0.00 | 0.00 | 0.00 | 68 | 1010.5 |
| 20260506160833 | 20 | 77 | 0.0 | 4.8 | 0.00 | 0.00 | 0.00 | 67 | 1010.5 |
| 20260506160333 | 20 | 78 | 1.6 | 6.4 | 0.00 | 0.00 | 0.00 | 67 | 1010.5 |
| 20260506155827 | 20 | 78 | 1.6 | 6.4 | 0.00 | 0.00 | 0.00 | 66 | 1010.5 |
| 20260506155343 | 20 | 80 | 1.6 | 6.4 | 0.00 | 0.00 | 0.00 | 66 | 1010.5 |
| 20260506154833 | 20 | 81 | 0.0 | 6.4 | 0.00 | 0.00 | 0.00 | 66 | 1010.4 |
| 20260506154327 | 21 | 81 | 1.6 | 6.4 | 0.00 | 0.00 | 0.00 | 64 | 1010.5 |
| 20260506153839 | 21 | 81 | 1.6 | 6.4 | 0.00 | 0.00 | 0.00 | 64 | 1010.5 |
| 20260506153330 | 21 | 66 | 1.6 | 8.0 | 0.00 | 0.00 | 0.00 | 64 | 1010.5 |
| 20260506152830 | 21 | 66 | 3.2 | 8.0 | 0.00 | 0.00 | 0.00 | 65 | 1010.5 |
| 20260506152323 | 20 | 67 | 0.0 | 4.8 | 0.00 | 0.00 | 0.00 | 66 | 1010.5 |
| 20260506151840 | 20 | 67 | 1.6 | 4.8 | 0.00 | 0.00 | 0.00 | 66 | 1010.5 |
| 20260506151333 | 20 | 67 | 1.6 | 3.2 | 0.00 | 0.00 | 0.00 | 68 | 1010.5 |
| 20260506150826 | 19 | 67 | 0.0 | 3.2 | 0.00 | 0.00 | 0.00 | 68 | 1010.5 |
| 20260506150337 | 19 | 67 | 0.0 | 3.2 | 0.00 | 0.00 | 0.00 | 68 | 1010.6 |
| 20260506145827 | 18 | 67 | 0.0 | 1.6 | 0.00 | 0.00 | 0.00 | 69 | 1010.7 |
| 20260506145338 | 18 | 67 | 0.0 | 4.8 | 0.00 | 0.00 | 0.00 | 69 | 1010.7 |
| 20260506144833 | 18 | 66 | 1.6 | 4.8 | 0.00 | 0.00 | 0.00 | 69 | 1010.7 |
| 20260506144326 | 18 | 66 | 1.6 | 6.4 | 0.00 | 0.00 | 0.00 | 69 | 1010.7 |
| 20260506143837 | 18 | 66 | 1.6 | 6.4 | 0.00 | 0.00 | 0.00 | 69 | 1010.7 |
| 20260506143328 | 18 | 67 | 1.6 | 6.4 | 0.00 | 0.00 | 0.00 | 69 | 1010.8 |
| 20260506142824 | 18 | 66 | 1.6 | 11.3 | 0.00 | 0.00 | 0.00 | 69 | 1010.9 |
| 20260506142334 | 18 | 67 | 3.2 | 11.3 | 0.00 | 0.00 | 0.00 | 69 | 1011.0 |
| 20260506141845 | 18 | 67 | 3.2 | 4.8 | 0.00 | 0.00 | 0.00 | 70 | 1011.0 |
| 20260506141335 | 18 | 67 | 0.0 | 6.4 | 0.00 | 0.00 | 0.00 | 70 | 1011.2 |
| 20260506140833 | 18 | 67 | 1.6 | 6.4 | 0.00 | 0.00 | 0.00 | 70 | 1011.2 |
| 20260506140343 | 18 | 67 | 0.0 | 6.4 | 0.00 | 0.00 | 0.00 | 70 | 1011.1 |
| 20260506135833 | 18 | 67 | 1.6 | 8.0 | 0.00 | 0.00 | 0.00 | 70 | 1011.2 |
| 20260506135327 | 18 | 67 | 1.6 | 11.3 | 0.00 | 0.00 | 0.00 | 71 | 1011.3 |
| 20260506134840 | 18 | 67 | 1.6 | 8.0 | 0.00 | 0.00 | 0.00 | 71 | 1011.3 |
| 20260506134331 | 18 | 77 | 1.6 | 6.4 | 0.00 | 0.00 | 0.00 | 71 | 1011.2 |
| 20260506133841 | 18 | 74 | 1.6 | 6.4 | 0.00 | 0.00 | 0.00 | 71 | 1011.2 |
| 20260506133332 | 18 | 44 | 1.6 | 6.4 | 0.00 | 0.00 | 0.00 | 72 | 1011.3 |
| 20260506132829 | 18 | 44 | 3.2 | 6.4 | 0.00 | 0.00 | 0.00 | 72 | 1011.4 |
| 20260506132326 | 18 | 40 | 0.0 | 9.7 | 0.00 | 0.00 | 0.00 | 72 | 1011.4 |
| 20260506131837 | 18 | 41 | 3.2 | 9.7 | 0.00 | 0.00 | 0.00 | 70 | 1011.5 |
| 20260506131327 | 19 | 64 | 3.2 | 11.3 | 0.00 | 0.00 | 0.00 | 71 | 1011.4 |
| 20260506130838 | 19 | 54 | 1.6 | 11.3 | 0.00 | 0.00 | 0.00 | 71 | 1011.4 |
| 20260506130328 | 19 | 62 | 4.8 | 11.3 | 0.00 | 0.00 | 0.00 | 71 | 1011.4 |
| 20260506125839 | 19 | 59 | 1.6 | 11.3 | 0.00 | 0.89 | 0.00 | 70 | 1011.4 |
| 20260506124827 | 19 | 360 | 4.8 | 16.1 | 0.00 | 0.89 | 0.00 | 71 | 1011.5 |
| 20260506124340 | 19 | 16 | 3.2 | 11.3 | 0.00 | 0.89 | 0.00 | 72 | 1011.6 |
| 20260506123831 | 19 | 51 | 3.2 | 11.3 | 0.00 | 0.89 | 0.00 | 71 | 1011.5 |
| 20260506123325 | 19 | 59 | 4.8 | 11.3 | 0.00 | 0.89 | 0.00 | 71 | 1011.5 |
| 20260506122838 | 19 | 58 | 3.2 | 11.3 | 0.00 | 0.89 | 0.00 | 70 | 1011.5 |
| 20260506122329 | 20 | 9 | 3.2 | 11.3 | 0.00 | 0.89 | 0.00 | 70 | 1011.5 |
| 20260506121819 | 20 | 48 | 3.2 | 9.7 | 0.00 | 0.89 | 0.00 | 70 | 1011.5 |
| 20260506121333 | 20 | 65 | 3.2 | 11.3 | 0.00 | 0.89 | 0.00 | 70 | 1011.5 |
| 20260506120831 | 20 | 23 | 4.8 | 11.3 | 0.00 | 0.89 | 0.00 | 69 | 1011.6 |
| 20260506120324 | 20 | 34 | 4.8 | 11.3 | 0.00 | 0.89 | 0.00 | 68 | 1011.6 |
| 20260506115834 | 20 | 34 | 3.2 | 9.7 | 0.00 | 0.89 | 0.00 | 69 | 1011.6 |
| 20260506115325 | 20 | 19 | 3.2 | 12.9 | 0.00 | 0.89 | 0.00 | 68 | 1011.7 |
| 20260506114819 | 20 | 32 | 4.8 | 12.9 | 0.00 | 0.89 | 0.00 | 67 | 1011.8 |
| 20260506114332 | 20 | 42 | 3.2 | 8.0 | 0.00 | 0.89 | 0.00 | 67 | 1011.8 |
| 20260506113826 | 21 | 55 | 1.6 | 16.1 | 0.00 | 0.89 | 0.00 | 67 | 1011.8 |
| 20260506113336 | 21 | 74 | 4.8 | 16.1 | 0.00 | 0.89 | 0.00 | 66 | 1011.8 |
| 20260506112834 | 21 | 36 | 3.2 | 9.7 | 0.00 | 0.89 | 0.00 | 68 | 1011.8 |
| 20260506112324 | 20 | 17 | 3.2 | 11.3 | 0.00 | 0.89 | 0.00 | 68 | 1011.9 |
| 20260506111835 | 20 | 44 | 3.2 | 11.3 | 0.00 | 0.89 | 0.00 | 69 | 1012.0 |
| 20260506111328 | 20 | 69 | 3.2 | 9.7 | 0.00 | 0.89 | 0.00 | 69 | 1012.1 |
| 20260506110839 | 20 | 44 | 3.2 | 9.7 | 0.00 | 0.89 | 0.00 | 70 | 1012.1 |
| 20260506110330 | 20 | 5 | 3.2 | 9.7 | 0.00 | 0.89 | 0.00 | 69 | 1012.1 |
| 20260506105826 | 19 | 58 | 1.6 | 11.3 | 0.00 | 0.89 | 0.00 | 71 | 1012.1 |
| 20260506105340 | 19 | 59 | 4.8 | 11.3 | 0.00 | 0.89 | 0.00 | 69 | 1012.2 |
| 20260506104835 | 19 | 39 | 3.2 | 8.0 | 0.00 | 0.89 | 0.00 | 71 | 1012.1 |
| 20260506104325 | 19 | 94 | 3.2 | 9.7 | 0.00 | 0.89 | 0.00 | 71 | 1012.1 |
| 20260506103835 | 19 | 18 | 4.8 | 14.5 | 0.00 | 0.89 | 0.00 | 71 | 1012.1 |
| 20260506103329 | 19 | 24 | 4.8 | 14.5 | 0.00 | 0.89 | 0.00 | 71 | 1012.1 |
| 20260506102822 | 19 | 15 | 3.2 | 14.5 | 0.00 | 0.89 | 0.00 | 71 | 1012.1 |
| 20260506102333 | 20 | 13 | 6.4 | 14.5 | 0.00 | 0.89 | 0.00 | 71 | 1012.1 |
| 20260506101824 | 20 | 72 | 6.4 | 16.1 | 0.00 | 0.89 | 0.00 | 71 | 1012.1 |
| 20260506101337 | 20 | 5 | 4.8 | 11.3 | 0.00 | 0.89 | 0.00 | 71 | 1012.1 |
| 20260506100831 | 19 | 60 | 4.8 | 11.3 | 0.00 | 0.89 | 0.00 | 73 | 1012.1 |
| 20260506100336 | 19 | 53 | 3.2 | 11.3 | 0.00 | 0.89 | 0.00 | 72 | 1012.1 |
| 20260506095829 | 19 | 57 | 1.6 | 11.3 | 0.00 | 0.89 | 0.00 | 73 | 1012.1 |
| 20260506095319 | 19 | 21 | 3.2 | 16.1 | 0.00 | 0.89 | 0.00 | 71 | 1012.1 |
| 20260506094833 | 19 | 5 | 6.4 | 16.1 | 0.00 | 0.89 | 0.00 | 72 | 1012.1 |
| 20260506093837 | 19 | 39 | 4.8 | 16.1 | 0.00 | 0.89 | 0.00 | 70 | 1012.0 |
| 20260506093328 | 20 | 5 | 6.4 | 16.1 | 0.00 | 0.89 | 0.00 | 70 | 1012.0 |
| 20260506092825 | 20 | 11 | 8.0 | 16.1 | 0.00 | 0.89 | 0.00 | 69 | 1011.9 |
| 20260506092319 | 20 | 17 | 3.2 | 12.9 | 0.00 | 0.89 | 0.00 | 71 | 1011.8 |
| 20260506091832 | 20 | 38 | 4.8 | 12.9 | 0.00 | 0.89 | 0.00 | 71 | 1011.7 |
| 20260506091323 | 19 | 9 | 3.2 | 11.3 | 0.00 | 0.89 | 0.00 | 72 | 1011.7 |
| 20260506090833 | 19 | 360 | 6.4 | 11.3 | 0.00 | 0.89 | 0.00 | 72 | 1011.7 |
| 20260506090324 | 18 | 25 | 3.2 | 16.1 | 0.00 | 0.89 | 0.00 | 74 | 1011.6 |
| 20260506085833 | 18 | 61 | 4.8 | 16.1 | 0.00 | 0.89 | 0.00 | 74 | 1011.7 |
| 20260506085324 | 18 | 5 | 3.2 | 12.9 | 0.00 | 0.89 | 0.00 | 74 | 1011.7 |
| 20260506084822 | 18 | 360 | 4.8 | 12.9 | 0.00 | 0.89 | 0.00 | 74 | 1011.6 |
| 20260506084332 | 18 | 17 | 4.8 | 12.9 | 0.00 | 0.89 | 0.00 | 74 | 1011.6 |
| 20260506083823 | 18 | 14 | 4.8 | 16.1 | 0.00 | 0.89 | 0.00 | 74 | 1011.6 |
| 20260506083333 | 18 | 11 | 6.4 | 16.1 | 0.00 | 0.89 | 0.00 | 75 | 1011.6 |
| 20260506082827 | 18 | 13 | 6.4 | 16.1 | 0.00 | 0.89 | 0.00 | 75 | 1011.6 |
| 20260506082317 | 18 | 9 | 3.2 | 8.0 | 0.00 | 0.89 | 0.00 | 76 | 1011.7 |
| 20260506081832 | 18 | 11 | 4.8 | 8.0 | 0.00 | 0.89 | 0.00 | 76 | 1011.7 |
| 20260506081325 | 18 | 11 | 3.2 | 11.3 | 0.00 | 0.89 | 0.00 | 76 | 1011.7 |
| 20260506080820 | 18 | 10 | 3.2 | 11.3 | 0.00 | 0.89 | 0.00 | 76 | 1011.6 |
| 20260506080330 | 18 | 11 | 1.6 | 9.7 | 0.00 | 0.89 | 0.00 | 76 | 1011.7 |
| 20260506073317 | 17 | 349 | 1.6 | 8.0 | 0.00 | 0.89 | 0.00 | 77 | 1011.6 |
| 20260506072830 | 17 | 344 | 3.2 | 11.3 | 0.00 | 0.89 | 0.00 | 77 | 1011.6 |
| 20260506072328 | 17 | 338 | 1.6 | 9.7 | 0.00 | 0.89 | 0.00 | 78 | 1011.6 |
| 20260506071820 | 17 | 334 | 1.6 | 8.0 | 0.00 | 0.89 | 0.00 | 78 | 1011.6 |
| 20260506071330 | 17 | 334 | 1.6 | 8.0 | 0.00 | 0.89 | 0.00 | 79 | 1011.6 |
| 20260506070827 | 17 | 334 | 1.6 | 8.0 | 0.00 | 0.89 | 0.00 | 79 | 1011.6 |
| 20260506070320 | 17 | 334 | 1.6 | 4.8 | 0.00 | 0.89 | 0.00 | 79 | 1011.6 |
| 20260506061819 | 16 | 334 | 0.0 | 1.6 | 0.00 | 0.89 | 0.00 | 79 | 1011.5 |
| 20260506061329 | 16 | 334 | 0.0 | 0.0 | 0.00 | 0.89 | 0.00 | 79 | 1011.6 |
| 20260506060823 | 16 | 334 | 0.0 | 0.0 | 0.00 | 0.89 | 0.00 | 79 | 1011.6 |
| 20260506060317 | 16 | 334 | 0.0 | 0.0 | 0.00 | 0.89 | 0.00 | 79 | 1011.5 |
| 20260506051334 | 16 | 334 | 0.0 | 0.0 | 0.00 | 0.89 | 0.00 | 82 | 1011.2 |
| 20260506050828 | 16 | 334 | 0.0 | 0.0 | 0.00 | 0.89 | 0.00 | 82 | 1011.1 |
| 20260506050321 | 16 | 334 | 0.0 | 1.6 | 0.00 | 0.89 | 0.00 | 82 | 1011.0 |
| 20260506044820 | 16 | 334 | 0.0 | 6.4 | 0.00 | 0.89 | 0.00 | 82 | 1011.0 |
| 20260506044331 | 16 | 334 | 0.0 | 6.4 | 0.00 | 0.89 | 0.00 | 82 | 1010.9 |
| 20260506043821 | 16 | 334 | 1.6 | 6.4 | 0.00 | 0.89 | 0.00 | 82 | 1010.8 |
| 20260506043334 | 16 | 334 | 1.6 | 8.0 | 0.00 | 0.89 | 0.00 | 82 | 1010.8 |
| 20260506042824 | 16 | 334 | 1.6 | 8.0 | 0.00 | 0.89 | 0.00 | 83 | 1010.7 |
| 20260506042338 | 16 | 334 | 1.6 | 6.4 | 0.00 | 0.89 | 0.00 | 83 | 1010.8 |
| 20260506041829 | 16 | 333 | 3.2 | 8.0 | 0.00 | 0.89 | 0.00 | 83 | 1010.7 |
| 20260506041319 | 16 | 332 | 1.6 | 8.0 | 0.00 | 0.89 | 0.00 | 83 | 1010.8 |
| 20260506040817 | 16 | 332 | 3.2 | 8.0 | 0.00 | 0.89 | 0.00 | 83 | 1010.8 |
| 20260506040320 | 16 | 333 | 0.0 | 0.0 | 0.00 | 0.89 | 0.00 | 83 | 1010.6 |
| 20260506035834 | 15 | 333 | 0.0 | 1.6 | 0.00 | 0.89 | 0.00 | 83 | 1010.6 |
| 20260506035324 | 15 | 333 | 0.0 | 1.6 | 0.00 | 0.89 | 0.00 | 83 | 1010.6 |
| 20260506034815 | 15 | 333 | 0.0 | 0.0 | 0.00 | 0.89 | 0.00 | 82 | 1010.7 |
| 20260506034328 | 16 | 333 | 0.0 | 0.0 | 0.00 | 0.89 | 0.00 | 82 | 1010.7 |
| 20260506033822 | 16 | 333 | 0.0 | 0.0 | 0.00 | 0.89 | 0.00 | 82 | 1010.7 |
| 20260506033333 | 16 | 333 | 0.0 | 3.2 | 0.00 | 0.89 | 0.00 | 82 | 1010.7 |
| 20260506032826 | 16 | 333 | 0.0 | 3.2 | 0.00 | 0.89 | 0.00 | 82 | 1010.7 |
| 20260506032327 | 16 | 333 | 0.0 | 4.8 | 0.00 | 0.89 | 0.00 | 81 | 1010.6 |
| 20260506031820 | 16 | 333 | 0.0 | 3.2 | 0.00 | 0.89 | 0.00 | 81 | 1010.7 |
| 20260506031331 | 16 | 333 | 0.0 | 4.8 | 0.00 | 0.89 | 0.00 | 81 | 1010.6 |
| 20260506030820 | 16 | 333 | 0.0 | 4.8 | 0.00 | 0.89 | 0.00 | 81 | 1010.6 |
| 20260506030334 | 16 | 333 | 1.6 | 4.8 | 0.00 | 0.89 | 0.00 | 81 | 1010.5 |
| 20260506025822 | 16 | 333 | 0.0 | 4.8 | 0.00 | 0.89 | 0.00 | 81 | 1010.5 |
| 20260506025333 | 16 | 333 | 1.6 | 4.8 | 0.00 | 0.89 | 0.00 | 81 | 1010.5 |
| 20260506024825 | 16 | 333 | 0.0 | 6.4 | 0.00 | 0.89 | 0.00 | 81 | 1010.5 |
| 20260506024323 | 16 | 333 | 1.6 | 6.4 | 0.00 | 0.89 | 0.00 | 81 | 1010.5 |
| 20260506023837 | 16 | 333 | 0.0 | 4.8 | 0.00 | 0.89 | 0.00 | 81 | 1010.6 |
| 20260506023330 | 16 | 333 | 1.6 | 8.0 | 0.00 | 0.89 | 0.00 | 81 | 1010.6 |
| 20260506022839 | 16 | 355 | 0.0 | 6.4 | 0.00 | 0.89 | 0.00 | 81 | 1010.5 |
| 20260506022328 | 16 | 355 | 1.6 | 6.4 | 0.00 | 0.89 | 0.00 | 81 | 1010.6 |
| 20260506021819 | 16 | 355 | 3.2 | 9.7 | 0.00 | 0.89 | 0.00 | 81 | 1010.6 |
| 20260506021332 | 16 | 355 | 3.2 | 11.3 | 0.00 | 0.89 | 0.00 | 82 | 1010.6 |
| 20260506020846 | 16 | 320 | 3.2 | 11.3 | 0.00 | 0.89 | 0.00 | 82 | 1010.6 |
| 20260506020333 | 16 | 321 | 3.2 | 11.3 | 0.00 | 0.89 | 0.00 | 82 | 1010.7 |
| 20260506015824 | 16 | 46 | 1.6 | 9.7 | 0.00 | 0.89 | 0.00 | 82 | 1010.6 |
| 20260506015334 | 16 | 342 | 4.8 | 14.5 | 0.00 | 0.89 | 0.00 | 82 | 1010.6 |
| 20260506014824 | 17 | 350 | 4.8 | 14.5 | 0.00 | 0.89 | 0.00 | 82 | 1010.6 |
| 20260506014318 | 17 | 31 | 1.6 | 8.0 | 0.00 | 0.89 | 0.00 | 82 | 1010.6 |
| 20260506013832 | 17 | 32 | 0.0 | 12.9 | 0.00 | 0.89 | 0.00 | 82 | 1010.6 |
| 20260506013322 | 17 | 324 | 3.2 | 11.3 | 0.00 | 0.89 | 0.00 | 82 | 1010.7 |
| 20260506012832 | 17 | 296 | 1.6 | 4.8 | 0.00 | 0.89 | 0.00 | 82 | 1010.7 |
| 20260506012327 | 17 | 296 | 0.0 | 9.7 | 0.00 | 0.89 | 0.00 | 82 | 1010.7 |
| 20260506011837 | 17 | 296 | 1.6 | 9.7 | 0.00 | 0.89 | 0.00 | 82 | 1010.7 |
| 20260506011328 | 17 | 306 | 0.0 | 8.0 | 0.00 | 0.89 | 0.00 | 82 | 1010.7 |
| 20260506010838 | 17 | 311 | 0.0 | 6.4 | 0.00 | 0.89 | 0.00 | 82 | 1010.7 |
| 20260506010329 | 17 | 312 | 1.6 | 9.7 | 0.00 | 0.89 | 0.00 | 82 | 1010.7 |
| 20260506005822 | 17 | 288 | 1.6 | 6.4 | 0.00 | 0.89 | 0.00 | 82 | 1010.7 |
| 20260506005332 | 17 | 288 | 1.6 | 8.0 | 0.00 | 0.89 | 0.00 | 82 | 1010.8 |
| 20260506004826 | 17 | 288 | 1.6 | 9.7 | 0.00 | 0.89 | 0.00 | 82 | 1010.7 |
| 20260506004320 | 17 | 299 | 3.2 | 9.7 | 0.00 | 0.89 | 0.00 | 82 | 1010.8 |
| 20260506003831 | 17 | 268 | 0.0 | 9.7 | 0.00 | 0.89 | 0.00 | 82 | 1010.7 |
| 20260506003321 | 17 | 272 | 3.2 | 9.7 | 0.00 | 0.89 | 0.00 | 82 | 1010.7 |
| 20260506002832 | 17 | 264 | 3.2 | 11.3 | 0.00 | 0.89 | 0.00 | 82 | 1010.7 |
| 20260506002324 | 17 | 299 | 1.6 | 9.7 | 0.00 | 0.89 | 0.00 | 82 | 1010.8 |
| 20260506001818 | 17 | 269 | 1.6 | 8.0 | 0.00 | 0.89 | 0.00 | 82 | 1010.9 |
| 20260506001332 | 17 | 342 | 1.6 | 9.7 | 0.00 | 0.89 | 0.00 | 82 | 1010.9 |
| 20260506000825 | 17 | 313 | 3.2 | 9.7 | 0.00 | 0.89 | 0.00 | 81 | 1010.9 |
| 20260506000323 | 17 | 279 | 1.6 | 9.7 | 0.00 | 0.89 | 0.00 | 81 | 1011.0 |
| 20260505235833 | 17 | 246 | 3.2 | 14.5 | 0.00 | 0.89 | 0.00 | 80 | 1011.0 |
| 20260505235324 | 17 | 242 | 3.2 | 14.5 | 0.00 | 0.89 | 0.00 | 80 | 1011.0 |
| 20260505234834 | 17 | 242 | 1.6 | 11.3 | 0.00 | 0.89 | 0.00 | 80 | 1011.0 |
| 20260505234328 | 17 | 234 | 4.8 | 12.9 | 0.00 | 0.89 | 0.00 | 80 | 1010.9 |
| 20260505233838 | 17 | 234 | 3.2 | 12.9 | 0.00 | 0.89 | 0.00 | 79 | 1010.9 |
| 20260505233329 | 17 | 257 | 6.4 | 12.9 | 0.00 | 0.89 | 0.00 | 79 | 1010.8 |
| 20260505232826 | 17 | 252 | 6.4 | 11.3 | 0.00 | 0.89 | 0.00 | 79 | 1010.7 |
| 20260505232320 | 17 | 251 | 3.2 | 11.3 | 0.00 | 0.89 | 0.00 | 79 | 1010.7 |
| 20260505231833 | 17 | 252 | 3.2 | 12.9 | 0.00 | 0.89 | 0.00 | 79 | 1010.7 |
| 20260505231326 | 17 | 252 | 1.6 | 14.5 | 0.00 | 0.89 | 0.00 | 79 | 1010.7 |
| 20260505230820 | 17 | 249 | 4.8 | 14.5 | 0.00 | 0.89 | 0.00 | 79 | 1010.6 |
| 20260505230334 | 16 | 241 | 8.0 | 14.5 | 0.00 | 0.89 | 0.00 | 78 | 1010.6 |
| 20260505225827 | 15 | 257 | 1.6 | 11.3 | 0.00 | 0.89 | 0.00 | 74 | 1010.5 |
| 20260505225338 | 15 | 190 | 3.2 | 8.0 | 0.00 | 0.89 | 0.00 | 74 | 1010.5 |
| 20260505224828 | 15 | 98 | 0.0 | 3.2 | 0.00 | 0.89 | 0.00 | 73 | 1010.5 |
| 20260505224323 | 15 | 98 | 1.6 | 3.2 | 0.00 | 0.89 | 0.00 | 73 | 1010.3 |
| 20260505223833 | 15 | 98 | 0.0 | 4.8 | 0.00 | 0.89 | 0.00 | 73 | 1010.3 |
| 20260505223324 | 15 | 98 | 1.6 | 4.8 | 0.00 | 0.89 | 0.00 | 74 | 1010.4 |
| 20260505222820 | 15 | 98 | 0.0 | 4.8 | 0.00 | 0.89 | 0.00 | 74 | 1010.4 |
| 20260505222331 | 15 | 98 | 0.0 | 4.8 | 0.00 | 0.89 | 0.00 | 72 | 1010.5 |
| 20260505221841 | 15 | 98 | 0.0 | 1.6 | 0.00 | 0.89 | 0.00 | 71 | 1010.2 |
| 20260505221332 | 15 | 98 | 0.0 | 1.6 | 0.00 | 0.89 | 0.00 | 71 | 1010.0 |
| 20260505220843 | 16 | 98 | 0.0 | 1.6 | 0.00 | 0.89 | 0.00 | 70 | 1009.9 |
| 20260505220345 | 16 | 98 | 0.0 | 1.6 | 0.00 | 0.89 | 0.00 | 70 | 1009.9 |
| 20260505215331 | 16 | 98 | 0.0 | 4.8 | 0.00 | 0.89 | 0.18 | 70 | 1010.0 |
| 20260505214827 | 16 | 98 | 0.0 | 8.0 | 0.00 | 0.89 | 0.18 | 68 | 1010.1 |
| 20260505214340 | 16 | 98 | 1.6 | 8.0 | 0.00 | 0.89 | 0.18 | 68 | 1010.1 |
| 20260505213829 | 16 | 98 | 0.0 | 3.2 | 0.00 | 0.89 | 0.18 | 70 | 1010.1 |
| 20260505213340 | 16 | 98 | 0.0 | 4.8 | 0.00 | 0.89 | 0.18 | 70 | 1010.1 |
| 20260505212834 | 16 | 98 | 1.6 | 4.8 | 0.00 | 0.89 | 0.18 | 70 | 1010.2 |
| 20260505212324 | 16 | 98 | 0.0 | 8.0 | 0.00 | 0.89 | 0.18 | 70 | 1010.1 |
| 20260505211841 | 16 | 98 | 0.0 | 8.0 | 0.00 | 0.89 | 0.18 | 70 | 1010.1 |
| 20260505211334 | 16 | 98 | 1.6 | 3.2 | 0.00 | 0.89 | 0.18 | 70 | 1010.1 |
| 20260505210825 | 16 | 98 | 1.6 | 4.8 | 0.00 | 0.89 | 0.18 | 69 | 1010.2 |
| 20260505210335 | 16 | 98 | 1.6 | 4.8 | 0.00 | 0.89 | 0.18 | 69 | 1010.2 |
| 20260505205831 | 17 | 98 | 0.0 | 4.8 | 0.00 | 0.89 | 0.18 | 68 | 1010.2 |
| 20260505205341 | 17 | 98 | 0.0 | 3.2 | 0.00 | 0.89 | 0.18 | 68 | 1010.1 |
| 20260505204832 | 17 | 98 | 0.0 | 3.2 | 0.00 | 0.89 | 0.18 | 67 | 1010.2 |
| 20260505204322 | 17 | 98 | 0.0 | 4.8 | 0.00 | 0.89 | 0.18 | 68 | 1010.1 |